Flag for Lithuania Weather past 2 weeks in Kaunas, Lithuania

Now
32 °F

Fog.


Feels Like: 32 °F
Forecast: 21 / 32 °F
Wind: 2 mph from North

Location: Kaunas

Current Time: Jan 25, 2015 at 5:12:55 PM

Latest Report: Jan 25, 2015 at 4:50 PM


Visibility: 0 mi

Pressure: 30.09 "Hg

Humidity: 93%

Dew point: 30 °F

Location of KaunasLocation

Historic Weather in Kaunas — Graph

°F

Kaunas temperature yesterday

Maximum temperature yesterday: 28 °F (at 12:20 AM)
Minimum temperature yesterday: 27 °F (at 6:50 AM)
Average temperature yesterday: 28 °F

Past Weeks' High & Low Weather Summary

 TemperatureHumidityPressure
High43 °F (Jan 13, 5:20 AM)100% (Jan 10, 4:50 PM)30.21 "Hg (Jan 10, 4:50 PM)
Low23 °F (Jan 19, 12:20 AM)56% (Jan 11, 10:50 AM)28.91 "Hg (Jan 10, 9:20 PM)
Average33 °F85%29.85 "Hg
* Reported Jan 10 3:20 PM — Jan 25 3:50 PM, Kaunas, Weather by CustomWeather, © 2014

Note: Actual official high and low records may vary slightly from our data, if they occured in-between our weather recording intervals... More about our weather records

Advertising

Kaunas weather history for previous 24 hours

 ConditionsComfort  
Time TempWeatherWind HumidityBarometerVisibility
3:50 PM
Jan 25
32 °FDrizzle. Fog.No wind100%30.07 "Hg1 mi
3:20 PM32 °FDrizzle. Fog.No wind100%30.07 "Hg1 mi
2:50 PM34 °FChilly.No wind93%30.07 "Hg1 mi
2:20 PM34 °FChilly.No wind93%30.07 "Hg1 mi
1:50 PM34 °FChilly.No wind93%30.07 "Hg1 mi
1:20 PM34 °FRain. Fog.1 mph93%30.07 "Hg1 mi
12:50 PM32 °FRain. Ice fog.1 mph100%30.07 "Hg1 mi
12:20 PM32 °FRain. Ice fog.1 mph93%30.09 "Hg1 mi
11:50 AM32 °FChilly.2 mph93%30.09 "Hg1 mi
11:20 AM32 °FChilly.3 mph93%30.09 "Hg1 mi
10:50 AM32 °FLight freezing rain. Ice fog.No wind93%30.09 "Hg1 mi
10:20 AM32 °FIce fog.No wind93%30.07 "Hg2 mi
9:50 AM32 °FIce fog.No wind93%30.07 "Hg1 mi
9:20 AM30 °FIce fog.No wind93%30.07 "Hg1 mi
8:50 AM30 °FIce fog.No wind93%30.07 "Hg1 mi
8:20 AM30 °FFog.2 mph93%30.07 "Hg1 mi
8:00 AM30 °FFog.2 mph93%30.07 "Hg1 mi
7:20 AM30 °FLow clouds.2 mph93%30.07 "Hg4 mi
6:50 AM30 °FLow clouds.1 mph93%30.07 "Hg4 mi
6:20 AM30 °FIce fog.1 mph93%30.07 "Hg3 mi
5:20 AM30 °FLight snow. Low clouds.1 mph86%30.07 "Hg4 mi
4:50 AM28 °FLight snow. Ice fog.2 mph93%30.07 "Hg3 mi
4:20 AM28 °FLight snow. Ice fog.2 mph93%30.07 "Hg2 mi
3:50 AM28 °FLight snow. Ice fog.2 mph93%30.07 "Hg2 mi
3:20 AM28 °FLight snow. Overcast.2 mph93%30.07 "Hg1 mi
3:00 AM28 °FLight snow. Mostly cloudy.2 mph93%30.07 "Hg2 mi
2:20 AM28 °FLight snow. Mostly cloudy.2 mph93%30.07 "Hg2 mi
1:50 AM28 °FLight snow. Overcast.2 mph93%30.07 "Hg3 mi
1:20 AM28 °FLight snow. Low clouds.3 mph93%30.07 "Hg3 mi
12:54 AM28 °FLight snow. Mostly cloudy.3 mph93%30.07 "Hg2 mi
12:20 AM28 °FSnow flurries. Low clouds.5 mph93%30.07 "Hg3 mi
11:20 PM
Jan 24
28 °FLight snow. Mostly cloudy.5 mph93%30.09 "Hg6 mi
10:50 PM28 °FLight snow. Overcast.5 mph93%30.09 "Hg4 mi
10:20 PM28 °FLight snow. Low clouds.5 mph86%30.09 "Hg6 mi
9:50 PM28 °FLow clouds.5 mph86%30.09 "Hg6 mi
9:20 PM28 °FLow clouds.5 mph86%30.09 "HgN/A
8:50 PM28 °FLow clouds.6 mph86%30.12 "HgN/A
8:20 PM28 °FLow clouds.5 mph86%30.12 "HgN/A
7:50 PM28 °FMostly cloudy.7 mph86%30.12 "HgN/A
7:20 PM28 °FMostly cloudy.5 mph86%30.12 "HgN/A
6:50 PM28 °FMostly cloudy.6 mph80%30.12 "HgN/A
6:20 PM28 °FOvercast.6 mph80%30.12 "HgN/A
5:50 PM28 °FOvercast.8 mph80%30.15 "HgN/A
5:20 PM28 °FOvercast.5 mph80%30.12 "HgN/A
Weather by CustomWeather, © 2014

See weather overviewHow to use our weather pages